Home   Weather   Fatehpur   Past weeks

Flag for India Past Weather in Fatehpur, Uttar Pradesh, India — Yesterday and Last 2 Weeks

Now
86 °F

Fog.


Feels Like: 105 °F
Forecast: 81 / 96 °F
Wind: No wind

Location: Lucknow / Amausi

Current Time: Aug 17, 2017 at 1:32:36 am

Latest Report: Aug 17, 2017 at 12:00 am


Visibility: 2 mi

Pressure: 29.53 "Hg

Humidity: 89%

Dew Point: 82 °F

Location of FatehpurLocation

Past Weather in Fatehpur — Graph

°F

Fatehpur Temperature Yesterday

Maximum temperature yesterday: 95 °F (at 12:00 pm)
Minimum temperature yesterday: 82 °F (at 4:00 am)
Average temperature yesterday: 89 °F

High & Low Weather Summary for the Past Weeks

 TemperatureHumidityPressure
High97 °F (Aug 5, 12:30 pm)100% (Aug 2, 12:00 am)29.74 "Hg (Aug 2, 12:00 am)
Low77 °F (Aug 2, 5:30 am)67% (Aug 4, 1:00 pm)29.42 "Hg (Aug 3, 6:30 pm)
Average87 °F89%29.55 "Hg
* Reported Aug 2 12:00 am — Aug 17 12:00 am, Fatehpur. Weather by CustomWeather, © 2017

Note: Actual official high and low records may vary slightly from our data, if they occured in-between our weather recording intervals... More about our weather records

Advertising

Fatehpur Weather History for the Previous 24 Hours

Scroll right to see more
 ConditionsComfort  
Time TempWeatherWind HumidityBarometerVisibility
12:00 am
Thu, Aug 17
86 °FFog.No wind89%29.53 "Hg2 mi
11:00 pm
Wed, Aug 16
86 °FPartly cloudy.No wind89%29.53 "Hg2 mi
9:00 pm88 °FPartly cloudy.No wind89%29.53 "Hg2 mi
8:30 pm90 °FPartly cloudy.No wind84%29.50 "Hg2 mi
8:00 pm90 °FPartly cloudy.No wind84%29.50 "Hg2 mi
7:30 pm90 °FPartly cloudy.No wind84%29.50 "Hg2 mi
6:30 pm91 °FBroken clouds.3 mph84%29.47 "Hg2 mi
6:00 pm86 °FBroken clouds.3 mph100%29.47 "Hg2 mi
5:00 pm95 °FBroken clouds.3 mph75%29.47 "Hg2 mi
4:30 pm95 °FBroken clouds.3 mph75%29.47 "Hg2 mi
4:00 pm95 °FBroken clouds.3 mph75%29.47 "Hg2 mi
3:30 pm95 °FBroken clouds.3 mph75%29.50 "Hg2 mi
3:00 pm95 °FBroken clouds.5 mph71%29.50 "Hg2 mi
2:30 pm95 °FBroken clouds.5 mph71%29.53 "Hg2 mi
2:00 pm95 °FBroken clouds.5 mph71%29.53 "Hg2 mi
1:30 pm95 °FBroken clouds.5 mph75%29.53 "Hg2 mi
1:00 pm95 °FBroken clouds.5 mph75%29.56 "Hg2 mi
12:30 pm95 °FBroken clouds.3 mph71%29.56 "Hg2 mi
12:00 pm95 °FBroken clouds.3 mph75%29.59 "Hg2 mi
11:30 am91 °FBroken clouds.5 mph84%29.59 "Hg2 mi
11:00 am93 °FBroken clouds.5 mph80%29.59 "Hg2 mi
10:30 am91 °FPartly sunny.5 mph80%29.62 "Hg2 mi
10:00 am90 °FPartly sunny.3 mph79%29.62 "Hg2 mi
9:30 am90 °FFog.3 mph79%29.59 "Hg2 mi
8:30 am86 °FFog.No wind89%29.59 "Hg2 mi
8:00 am84 °FFog.No wind94%29.59 "Hg2 mi
7:30 am84 °FFog.3 mph94%29.59 "Hg2 mi
7:00 am84 °FFog.2 mph94%29.59 "Hg2 mi
6:30 am82 °FFog.2 mph94%29.59 "Hg2 mi
6:00 am82 °FFog.No wind94%29.56 "Hg2 mi
5:30 am82 °FFog.No wind94%29.56 "Hg2 mi
5:00 am82 °FFog.No wind94%29.56 "Hg2 mi
4:00 am82 °FFog.No wind100%29.56 "Hg2 mi
2:00 am84 °FFog.2 mph94%29.53 "Hg2 mi
1:00 am84 °FFog.No wind94%29.56 "Hg2 mi
Weather by CustomWeather, © 2017

See weather overviewHow to use our weather pages